Tracking 28790 objects as of 18-Apr-2024
HD Live streaming from Space Station
objects crossing your sky now

CZ-6A DEB

Track CZ-6A DEB now!
10-day predictions


NORAD ID: 54518
Int'l Code: 2022-151JW
Perigee: 716.7 km
Apogee: 903.6 km
Inclination: 98.8 °
Period: 100.9 minutes
Semi major axis: 7181 km
RCS: Unknown
Launch date: November 11, 2022
Source: People's Republic of China (PRC)
Launch site: Taiyaun Space Center, China (TSC)

Note: This is SATELLITE DEBRIS
Your satellite tracking list
Your tracking list is empty




NASA's NSSDC Master Catalog

Two Line Element Set (TLE):
1 54518U 22151JW  24109.59203228  .00002905  00000-0  11173-2 0  9992
2 54518  98.8430 130.2053 0130133 256.1152 102.5523 14.26629666 74359
Source of the keplerian elements: AFSPC